Terminal Aerodrome Forecast
Issued by NWS Cleveland, OH

Home | Current Version | Previous Version | Graphics & Text | Print | Product List | Glossary On
Versions: 1 2 3 4 5 6 7 8 9 10 11 12 13 14 15 16 17 18 19 20 21 22 23 24 25 26
000
FTUS41 KCLE 251100 AAB
TAFTOL
TAF AMD
KTOL 251115Z 2511/2606 05008KT 3SM BR VCSH SCT008 OVC015
     FM251500 05012G20KT 2SM -SN OVC008
     FM251800 05012G22KT 1SM -SN OVC008
     FM252200 05012G22KT 5SM -SN BR OVC015
     FM260200 05012KT P6SM OVC020=

USA.gov is the U.S. government's official web portal to all federal, state and local government web resources and services.